time_stamp(utc),avg(mph),gust(mph),direction(deg),12m_air_temp(f),sonic_u(cm/s),sonic_v(cm/s),sonic_w(cm/s),pressure,2m_air_temp(f),pyranometer(W/m^2)
"2022-04-17 00:04:15+00",19.6,22.6,,,-488,-765,22,1008.16,57.1,0
"2022-04-17 00:09:15+00",19.7,22.7,,,-491,-773,13,1008.15,57.4,0
"2022-04-17 00:14:15+00",22.1,24.1,,,-585,-838,15,1008.16,57.6,0
"2022-04-17 00:19:15+00",20.8,23.8,,,-573,-762,17,1008.1,57.6,0
"2022-04-17 00:24:15+00",19.8,21.8,,,-521,-772,11,1008.1,57.6,0
"2022-04-17 00:29:15+00",18.8,21.8,,,-518,-715,21,1008.19,57.6,0
"2022-04-17 00:34:15+00",19.7,21.7,,,-574,-703,5,1008.16,57.6,0
"2022-04-17 00:39:15+00",19.0,21.0,,,-557,-668,10,1008.25,57.5,0
"2022-04-17 00:44:15+00",17.8,20.8,,,-509,-650,7,1008.33,57.3,0
"2022-04-17 00:49:15+00",16.5,18.5,,,-474,-589,11,1008.41,57.2,0
"2022-04-17 00:54:15+00",14.9,16.9,,,-439,-519,19,1008.49,57.2,0
"2022-04-17 00:59:15+00",15.7,16.7,,,-442,-579,15,1008.55,57.2,0
"2022-04-17 01:04:15+00",15.7,17.7,,,-407,-598,-4,1008.46,57.2,0
"2022-04-17 01:09:15+00",15.8,18.8,,,-467,-557,10,1008.82,57.2,0
"2022-04-17 01:14:15+00",18.6,22.6,,,-566,-636,20,1009.03,57.4,0
"2022-04-17 01:19:15+00",15.2,19.2,,,-443,-518,36,1008.87,57.6,0
"2022-04-17 01:24:15+00",14.7,16.7,,,-490,-442,37,1008.95,57.6,0
"2022-04-17 01:29:15+00",16.9,19.9,,,-551,-511,29,1009.23,57.5,0
"2022-04-17 01:34:15+00",17.4,20.4,,,-696,-457,17,1009.34,57.5,0
"2022-04-17 01:39:15+00",18.9,20.9,,,-832,241,65,1010.33,57.4,0
"2022-04-17 01:44:15+00",11.8,13.8,,,-477,246,48,1010.48,57.3,0
"2022-04-17 01:49:15+00",23.2,27.2,,,-623,836,62,1010.71,57.1,0
"2022-04-17 01:54:15+00",28.5,31.5,,,-453,1154,68,1010.69,55.9,0
"2022-04-17 01:59:15+00",25.0,28.0,,,-432,1026,41,1010.83,54.7,0
"2022-04-17 02:04:15+00",19.5,23.5,,,-218,828,32,1010.51,53.9,0
"2022-04-17 02:09:15+00",20.4,24.4,,,-173,862,28,1010.31,53.3,0
"2022-04-17 02:14:15+00",14.4,16.4,,,24,635,23,1009.98,53,0
"2022-04-17 02:19:15+00",20.5,23.5,,,-132,892,13,1010.42,52.6,0
"2022-04-17 02:24:15+00",20.4,22.4,,,-148,892,31,1010.79,52.3,0
"2022-04-17 02:29:15+00",20.0,23.0,,,-145,872,30,1011.05,52,0
"2022-04-17 02:34:15+00",18.8,20.8,,,-64,830,39,1011.43,51.8,0
"2022-04-17 02:39:15+00",20.9,26.9,,,45,949,35,1011.58,51.5,0
"2022-04-17 02:44:15+00",21.8,23.8,,,-111,957,30,1011.74,51.2,0
"2022-04-17 02:49:15+00",21.2,24.2,,,-130,921,34,1011.91,50.9,0
"2022-04-17 02:54:15+00",23.1,26.1,,,-393,948,45,1012.55,50.7,0
"2022-04-17 02:59:15+00",23.8,26.8,,,-310,997,37,1012.46,50.4,0
"2022-04-17 03:04:15+00",20.6,23.6,,,-134,905,23,1012.08,50.2,0
"2022-04-17 03:09:15+00",16.9,18.9,,,-165,732,36,1012.19,49.9,0
"2022-04-17 03:14:15+00",17.0,21.0,,,99,751,-8,1012.11,49.6,0
"2022-04-17 03:19:15+00",13.9,18.9,,,37,617,17,1012.13,49.2,0
"2022-04-17 03:24:15+00",15.5,19.5,,,-45,684,19,1012.23,49.1,0
"2022-04-17 03:29:15+00",13.6,16.6,,,-140,573,15,1012.73,48.8,0
"2022-04-17 03:34:15+00",11.9,15.9,,,77,517,0,1012.48,48.8,0
"2022-04-17 03:39:15+00",15.4,17.4,,,-3,677,17,1012.36,48.6,0
"2022-04-17 03:44:15+00",13.2,17.2,,,76,565,-1,1012.2,48.5,0
"2022-04-17 03:49:15+00",14.1,16.1,,,108,596,-5,1012.05,48.3,0
"2022-04-17 03:54:15+00",15.9,18.9,,,132,661,-1,1011.78,48.3,0
"2022-04-17 03:59:15+00",17.3,20.3,,,-55,770,26,1012.46,48.2,0
"2022-04-17 04:04:15+00",10.4,14.4,,,-72,459,30,1013.1,48.2,0
"2022-04-17 04:09:15+00",12.2,14.2,,,145,481,-8,1012.82,47.8,0
"2022-04-17 04:14:15+00",12.3,14.3,,,81,519,-7,1012.79,47.7,0
"2022-04-17 04:19:15+00",11.4,14.4,,,30,495,1,1012.91,47.5,0
"2022-04-17 04:24:15+00",13.3,15.3,,,54,573,-5,1013.24,47.4,0
"2022-04-17 04:29:15+00",13.9,15.9,,,19,604,11,1013.39,47.2,0
"2022-04-17 04:34:15+00",16.2,19.2,,,145,668,-17,1012.31,47.1,0
"2022-04-17 04:39:15+00",14.4,16.4,,,54,628,0,1012.9,47,0
"2022-04-17 04:44:15+00",14.6,16.6,,,59,644,4,1012.81,46.9,0
"2022-04-17 04:49:15+00",12.6,14.6,,,80,537,6,1012.74,46.7,0
"2022-04-17 04:54:15+00",12.5,14.5,,,45,548,5,1013.25,46.5,0
"2022-04-17 04:59:15+00",13.3,15.3,,,106,562,3,1012.95,46.5,0
"2022-04-17 05:04:15+00",11.3,14.3,,,108,468,4,1012.92,46.4,0
"2022-04-17 05:09:15+00",11.1,13.1,,,103,465,19,1012.99,46.3,0
"2022-04-17 05:14:15+00",13.4,16.4,,,110,572,9,1012.75,46.2,0
"2022-04-17 05:19:15+00",13.9,15.9,,,40,628,16,1012.82,46.3,0
"2022-04-17 05:24:15+00",16.2,18.2,,,39,700,11,1012.79,46.2,0
"2022-04-17 05:29:15+00",15.6,17.6,,,-3,677,10,1012.95,46.2,0
"2022-04-17 05:34:15+00",13.5,15.5,,,-73,605,11,1013.22,46.3,0
"2022-04-17 05:39:15+00",11.9,14.9,,,15,527,19,1013.12,46.3,0
"2022-04-17 05:44:15+00",10.8,12.8,,,38,467,4,1013.01,46.2,0
"2022-04-17 05:49:15+00",10.8,12.8,,,3,466,15,1013.43,46.1,0
"2022-04-17 05:54:15+00",10.2,12.2,,,1,445,6,1013.3,46.1,0
"2022-04-17 05:59:15+00",11.7,15.7,,,113,485,7,1012.76,45.8,0
"2022-04-17 06:04:15+00",11.9,13.9,,,121,499,-18,1012.69,45.6,0
"2022-04-17 06:09:15+00",10.3,12.3,,,27,455,2,1013.12,45.4,0
"2022-04-17 06:14:15+00",12.2,16.2,,,-44,554,16,1013.32,45.4,0
"2022-04-17 06:19:15+00",11.1,12.1,,,51,476,-6,1013.56,45.4,0
"2022-04-17 06:24:15+00",13.0,14.0,,,36,568,2,1013.38,45.4,0
"2022-04-17 06:29:15+00",11.8,12.8,,,75,508,8,1013.26,45.4,0
"2022-04-17 06:34:15+00",8.8,9.8,,,98,365,-2,1013.41,45.3,0
"2022-04-17 06:39:15+00",7.0,8.0,,,53,284,-1,1013.65,45.3,0
"2022-04-17 06:44:15+00",9.9,11.9,,,110,408,1,1013.49,45.2,0
"2022-04-17 06:49:15+00",8.2,9.2,,,111,327,-2,1013.39,45.1,0
"2022-04-17 06:54:15+00",9.6,10.6,,,37,414,1,1013.49,45,0
"2022-04-17 06:59:15+00",10.4,13.4,,,53,442,6,1013.42,45.1,0
"2022-04-17 07:04:15+00",8.9,9.9,,,6,388,8,1013.27,45.1,0
"2022-04-17 07:09:15+00",8.2,10.2,,,30,350,12,1013.26,45.3,0
"2022-04-17 07:14:15+00",6.9,7.9,,,20,299,7,1013.32,45.2,0
"2022-04-17 07:19:15+00",7.5,10.5,,,33,316,9,1013.35,45.2,0
"2022-04-17 07:24:15+00",7.0,8.0,,,7,299,9,1013.47,45.1,0
"2022-04-17 07:29:15+00",8.1,9.1,,,89,322,-9,1013.54,45.1,0
"2022-04-17 07:34:15+00",7.2,8.2,,,62,292,2,1013.47,45.1,0
"2022-04-17 07:39:15+00",8.1,9.1,,,71,328,-3,1013.42,45,0
"2022-04-17 07:44:15+00",9.2,11.2,,,58,401,4,1013.58,44.9,0
"2022-04-17 07:49:15+00",8.9,9.9,,,67,368,-1,1013.59,44.8,0
"2022-04-17 07:54:15+00",7.1,8.1,,,36,300,4,1013.73,44.7,0
"2022-04-17 07:59:15+00",8.0,9.0,,,14,346,7,1013.73,44.6,0
"2022-04-17 08:04:15+00",8.5,9.5,,,-64,364,16,1013.88,44.4,0
"2022-04-17 08:09:15+00",8.0,8.0,,,-28,348,16,1013.82,44.4,0
"2022-04-17 08:14:15+00",7.9,8.9,,,-51,340,15,1013.94,44.4,0
"2022-04-17 08:19:15+00",7.2,8.2,,46.3,-69,306,15,1014.05,44.4,0
"2022-04-17 08:24:15+00",6.5,7.5,,,-79,279,11,1014.24,44.5,0
"2022-04-17 08:29:15+00",7.0,8.0,,,-60,297,9,1014.25,44.6,0
"2022-04-17 08:34:15+00",5.2,6.2,,,-8,222,6,1014.28,44.7,0
"2022-04-17 08:39:15+00",6.5,7.5,,,-7,288,1,1014.27,44.7,0
"2022-04-17 08:44:15+00",5.9,6.9,,46.3,3,253,8,1014.3,44.8,0
"2022-04-17 08:49:15+00",5.8,6.8,,,55,227,2,1014.43,44.7,0
"2022-04-17 08:54:15+00",6.1,7.1,,,43,248,-4,1014.56,44.6,0
"2022-04-17 08:59:15+00",5.7,5.7,,,2,245,2,1014.68,44.6,0
"2022-04-17 09:04:15+00",5.0,6.0,,,-33,213,7,1014.69,44.6,0
"2022-04-17 09:09:15+00",5.9,6.9,,,-8,250,7,1014.75,44.5,0
"2022-04-17 09:14:15+00",6.2,6.2,,46.4,-91,254,9,1014.86,44.2,0
"2022-04-17 09:19:15+00",9.0,9.0,,,-168,356,20,1014.94,44,0
"2022-04-17 09:24:15+00",10.0,11.0,,,-174,405,21,1015.09,43.9,0
"2022-04-17 09:29:15+00",9.2,10.2,,,-162,368,18,1015.19,43.9,0
"2022-04-17 09:34:15+00",8.3,9.3,,,-143,335,17,1015.31,43.9,0
"2022-04-17 09:39:15+00",8.5,9.5,,,-170,328,17,1015.34,43.9,0
"2022-04-17 09:44:15+00",9.5,10.5,,,-209,365,18,1015.47,44.1,0
"2022-04-17 09:49:15+00",9.3,10.3,,,-166,373,18,1015.56,44.2,0
"2022-04-17 09:54:15+00",9.8,10.8,,,-175,390,13,1015.55,44.1,0
"2022-04-17 09:59:15+00",9.8,10.8,,,-165,391,20,1015.53,44,0
"2022-04-17 10:04:15+00",10.3,11.3,,,-208,407,18,1015.59,43.9,0
"2022-04-17 10:09:15+00",9.2,10.2,,,-176,372,19,1015.74,43.9,0
"2022-04-17 10:14:15+00",9.3,10.3,,,-192,362,19,1015.84,43.9,0
"2022-04-17 10:19:15+00",8.4,8.4,,,-185,316,15,1015.9,43.9,0
"2022-04-17 10:24:15+00",7.2,8.2,,,-156,269,7,1015.95,43.9,0
"2022-04-17 10:29:15+00",6.2,7.2,,,-118,244,9,1016.08,43.8,0
"2022-04-17 10:34:15+00",7.4,8.4,,,-164,276,6,1016.19,43.7,0
"2022-04-17 10:39:15+00",5.8,6.8,,,-75,234,8,1016.38,43.7,0
"2022-04-17 10:44:15+00",5.7,7.7,,,-74,229,6,1016.55,43.7,0
"2022-04-17 10:49:15+00",6.6,8.6,,,-86,269,-3,1016.69,43.7,0
"2022-04-17 10:54:15+00",7.5,8.5,,,-107,303,4,1016.8,43.9,0
"2022-04-17 10:59:15+00",8.9,10.9,,,-123,372,-2,1016.97,44.2,0
"2022-04-17 11:04:15+00",11.3,12.3,,,-101,490,1,1016.96,44.5,0
"2022-04-17 11:09:15+00",10.9,12.9,,46.1,-88,469,17,1017.14,44.8,0
"2022-04-17 11:14:15+00",9.7,10.7,,,-82,418,-4,1017.22,45.2,0
"2022-04-17 11:19:15+00",13.1,15.1,,47.2,1,584,11,1017.29,45.7,0
"2022-04-17 11:24:15+00",12.4,14.4,,,53,530,9,1017.44,45.7,0
"2022-04-17 11:29:15+00",11.6,12.6,,,2,516,14,1017.46,45.8,0
"2022-04-17 11:34:15+00",10.6,12.6,,,40,460,5,1017.64,45.9,0
"2022-04-17 11:39:15+00",13.7,14.7,,47,-116,599,12,1017.78,46,0
"2022-04-17 11:44:15+00",13.2,15.2,,,-231,547,45,1017.95,46.1,0.7
"2022-04-17 11:49:15+00",18.5,20.5,,,-143,813,17,1018.08,46,0.4
"2022-04-17 11:54:15+00",17.4,19.4,,,-57,756,21,1018.19,45.8,0.9
"2022-04-17 11:59:15+00",16.8,18.8,,,-117,738,19,1018.24,45.6,0.7
"2022-04-17 12:04:15+00",16.7,18.7,,,27,735,6,1018.25,45.3,0.2
"2022-04-17 12:09:15+00",15.8,18.8,,45.2,-14,710,10,1018.35,45.6,3.3
"2022-04-17 12:14:15+00",16.7,17.7,,,-52,738,9,1018.46,45.7,21.4
"2022-04-17 12:19:15+00",17.4,20.4,,45,-121,762,36,1018.52,46,54.8
"2022-04-17 12:24:15+00",17.9,20.9,,,-235,792,18,1018.63,46.4,111.8
"2022-04-17 12:29:15+00",18.3,20.3,,44.8,-97,806,11,1018.66,46.5,77.8
"2022-04-17 12:34:15+00",15.4,17.4,,,-131,675,37,1018.71,46.6,173.2
"2022-04-17 12:39:15+00",19.3,22.3,,,-302,810,28,1018.76,46.4,187.7
"2022-04-17 12:44:15+00",14.1,17.1,,45.2,-87,635,14,1018.96,46.7,194.6
"2022-04-17 12:49:15+00",17.9,19.9,,,-172,781,-1,1019.08,46.6,206.1
"2022-04-17 12:54:15+00",16.1,18.1,,,-138,705,8,1018.9,46.8,204.5
"2022-04-17 12:59:15+00",15.0,17.0,,,-369,572,58,1018.93,46.9,224.5
"2022-04-17 13:04:15+00",17.0,19.0,,,-387,660,37,1018.93,46.8,232.3
"2022-04-17 13:09:15+00",14.5,17.5,,,-355,550,58,1018.99,47.1,233.3
"2022-04-17 13:14:15+00",13.2,16.2,,,-241,530,38,1019.08,47.6,248.2
"2022-04-17 13:19:15+00",13.0,15.0,,,-265,498,57,1019.07,47.9,236.5
"2022-04-17 13:24:15+00",18.8,19.8,,,-407,726,46,1019.16,48.1,262.8
"2022-04-17 13:29:15+00",18.7,20.7,,,-492,685,39,1019.16,48,278.1
"2022-04-17 13:34:15+00",17.3,20.3,,46.4,-349,677,49,1019.19,47.9,284.8
"2022-04-17 13:39:15+00",16.4,19.4,,,-314,658,49,1019.25,48.2,292.5
"2022-04-17 13:44:15+00",15.5,16.5,,46.4,-295,632,37,1019.22,48.3,302.9
"2022-04-17 13:49:15+00",14.4,18.4,,,-161,626,41,1019.34,48.4,311.4
"2022-04-17 13:54:15+00",15.9,16.9,,,-287,646,28,1019.31,48.6,322.7
"2022-04-17 13:59:15+00",11.8,15.8,,,-113,500,4,1019.32,48.6,330.2
"2022-04-17 14:04:15+00",12.2,14.2,,,-82,536,37,1019.37,49.4,336.4
"2022-04-17 14:09:15+00",17.1,21.1,,,-403,635,15,1019.39,48.8,349.9
"2022-04-17 14:14:15+00",13.3,16.3,,,-224,538,11,1019.42,48.7,355.7
"2022-04-17 14:19:15+00",13.6,15.6,,,-359,485,35,1019.37,49,367.6
"2022-04-17 14:24:15+00",18.9,22.9,,,-453,712,62,1019.35,49.2,383.2
"2022-04-17 14:29:15+00",19.3,22.3,,,-676,552,53,1019.35,49,393.6
"2022-04-17 14:34:15+00",17.6,19.6,,47.4,-675,418,46,1019.31,49.2,402.7
"2022-04-17 14:39:15+00",13.1,15.1,,47.6,-401,416,28,1019.39,49.3,314.4
"2022-04-17 14:44:15+00",20.7,23.7,,,-655,669,75,1019.39,49.8,455.4
"2022-04-17 14:49:15+00",13.9,15.9,,,-503,369,58,1019.58,49.9,485.1
"2022-04-17 14:54:15+00",13.4,14.4,,,-556,261,53,1019.54,50.1,73.7
"2022-04-17 14:59:15+00",21.8,24.8,,,-781,610,84,1019.48,49.1,39.1
"2022-04-17 15:04:15+00",21.0,23.0,,47.6,-670,657,45,1019.61,48.8,335.5
"2022-04-17 15:09:15+00",14.7,15.7,,47.8,-552,370,55,1019.71,49.6,528.1
"2022-04-17 15:14:15+00",21.7,23.7,,,-833,525,68,1019.71,49.7,141.6
"2022-04-17 15:19:15+00",19.1,21.1,,47.9,-667,541,53,1019.71,49.3,89.3
"2022-04-17 15:24:15+00",19.8,22.8,,48.1,-767,455,69,1019.77,49.3,118.2
"2022-04-17 15:29:15+00",14.9,17.9,,,-594,355,36,1019.88,48.9,83.2
"2022-04-17 15:34:15+00",16.5,19.5,,,-562,483,47,1019.91,49.3,155.7
"2022-04-17 15:39:15+00",14.4,17.4,,48.3,-367,502,35,1019.86,49.5,89.2
"2022-04-17 15:44:15+00",17.0,21.0,,48.1,-578,501,38,1019.86,49.2,125.7
"2022-04-17 15:49:15+00",17.6,20.6,,48.3,-648,462,53,1019.95,49.5,131.5
"2022-04-17 15:54:15+00",17.3,21.3,,,-649,429,36,1019.9,50.2,375.6
"2022-04-17 15:59:15+00",18.8,23.8,,48.8,-668,543,56,1019.77,50.1,133.7
"2022-04-17 16:04:15+00",19.3,21.3,,,-735,454,71,1019.85,49.9,105.6
"2022-04-17 16:09:15+00",18.7,20.7,,,-701,470,49,1019.9,49.7,103.3
"2022-04-17 16:14:15+00",17.8,21.8,,48.8,-667,414,61,1019.87,49.8,121.7
"2022-04-17 16:19:15+00",19.9,24.9,,,-816,377,53,1019.82,49.9,302.4
"2022-04-17 16:24:15+00",20.5,23.5,,,-809,457,41,1019.82,49.9,133.6
"2022-04-17 16:29:15+00",19.1,21.1,,48.6,-795,385,64,1019.76,49.9,202.9
"2022-04-17 16:34:15+00",19.5,23.5,,,-704,502,73,1019.67,50.8,618.2
"2022-04-17 16:39:15+00",17.8,20.8,,49.2,-716,386,106,1019.74,51.1,564.1
"2022-04-17 16:44:15+00",19.6,22.6,,49.2,-632,606,58,1019.74,51.3,326.5
"2022-04-17 16:49:15+00",14.8,17.8,,48.6,-545,377,26,1019.82,50.6,579.4
"2022-04-17 16:54:15+00",20.8,23.8,,,-664,659,55,1019.76,50.5,103.6
"2022-04-17 16:59:15+00",22.4,26.4,,49.4,-845,513,79,1019.72,50.7,377.3
"2022-04-17 17:04:15+00",23.3,26.3,,49.5,-755,736,63,1019.68,51.2,484.1
"2022-04-17 17:09:15+00",20.9,23.9,,,-778,570,77,1019.71,51.1,234.9
"2022-04-17 17:14:15+00",19.3,21.3,,,-777,407,72,1019.8,50.2,318.2
"2022-04-17 17:19:15+00",16.1,18.1,,,-647,338,56,1019.79,51.1,590.1
"2022-04-17 17:24:15+00",22.2,26.2,,49.1,-752,654,75,1019.75,51.2,155.2
"2022-04-17 17:29:15+00",17.9,22.9,,,-540,593,55,1019.65,50.5,245.2
"2022-04-17 17:34:15+00",14.8,17.8,,49.1,-563,374,35,1019.67,50.7,112.2
"2022-04-17 17:39:15+00",20.4,23.4,,50.1,-483,772,54,1019.68,51.5,341.5
"2022-04-17 17:44:15+00",14.3,17.3,,,-327,562,52,1019.69,52,530.5
"2022-04-17 17:49:15+00",18.2,23.2,,50.3,-772,328,63,1019.59,52.7,483.5
"2022-04-17 17:54:15+00",21.8,25.8,,50,-794,641,64,1019.59,51.8,116
"2022-04-17 17:59:15+00",23.2,28.2,,,-813,662,71,1019.62,51.3,91.3
"2022-04-17 18:04:15+00",22.0,25.0,,,-780,608,53,1019.71,50.7,114.4
"2022-04-17 18:09:15+00",17.9,19.9,,49.8,-625,525,50,1019.65,50.7,132.3
"2022-04-17 18:14:15+00",24.1,28.1,,,-848,690,81,1019.57,51,242.9
"2022-04-17 18:19:15+00",27.6,30.6,,,-976,790,89,1019.58,50.9,110.7
"2022-04-17 18:24:15+00",17.6,20.6,,49.7,-649,466,73,1019.65,50.7,127.3
"2022-04-17 18:29:15+00",17.9,23.9,,49.7,-705,393,45,1019.62,50.7,113.4
"2022-04-17 18:34:15+00",20.8,24.8,,,-702,611,65,1019.7,51.1,401.8
"2022-04-17 18:39:15+00",22.6,24.6,,49.7,-610,820,61,1019.8,50.8,110.6
"2022-04-17 18:44:15+00",22.1,24.1,,,-382,899,23,1019.86,50.5,104.5
"2022-04-17 18:49:15+00",17.9,21.9,,,-346,713,16,1019.96,51,158.8
"2022-04-17 18:54:15+00",20.7,22.7,,,-719,632,63,1019.93,51.1,124.1
"2022-04-17 18:59:15+00",18.9,20.9,,,-600,576,41,1020.05,50.9,286.7
"2022-04-17 19:04:15+00",15.1,18.1,,50.2,-521,411,42,1020.09,51.8,106.2
"2022-04-17 19:09:15+00",20.7,25.7,,,-897,351,81,1020.04,52,282
"2022-04-17 19:14:15+00",22.1,25.1,,50.1,-788,608,78,1020.18,51.5,99.6
"2022-04-17 19:19:15+00",17.3,20.3,,,-494,589,31,1020.21,52.1,480.6
"2022-04-17 19:24:15+00",15.1,18.1,,49.9,-323,588,28,1020.19,51.9,77.9
"2022-04-17 19:29:15+00",21.6,24.6,,,-500,832,63,1020.28,51.1,143.6
"2022-04-17 19:34:15+00",25.5,27.5,,,-357,1101,19,1020.38,51.9,123.2
"2022-04-17 19:39:15+00",24.6,26.6,,49.6,-575,945,36,1020.45,51.3,415.2
"2022-04-17 19:44:15+00",22.2,25.2,,49.5,-570,787,37,1020.49,51.9,399.8
"2022-04-17 19:49:15+00",18.3,22.3,,,-420,705,22,1020.68,52,391.4
"2022-04-17 19:54:15+00",14.9,17.9,,,-457,485,47,1020.82,51.3,32.8
"2022-04-17 19:59:15+00",23.9,26.9,,,-777,721,81,1020.81,51.1,369.7
"2022-04-17 20:04:15+00",19.4,21.4,,50.2,-660,585,57,1020.93,51.9,350.7
"2022-04-17 20:09:15+00",14.7,16.7,,,-338,569,16,1020.98,51.1,168.9
"2022-04-17 20:14:15+00",14.9,15.9,,50.1,-439,502,39,1021.02,51.4,343.4
"2022-04-17 20:19:15+00",17.1,21.1,,,-508,562,61,1021.12,50.7,83.3
"2022-04-17 20:24:15+00",20.6,24.6,,49.9,-431,807,28,1021.08,51.7,316.6
"2022-04-17 20:29:15+00",16.5,18.5,,,-656,337,79,1021.1,52.2,297.9
"2022-04-17 20:34:15+00",21.9,23.9,,,-683,709,51,1021.16,52,261.1
"2022-04-17 20:39:15+00",21.6,24.6,,,-793,580,56,1021.29,51.7,288.8
"2022-04-17 20:44:15+00",19.3,21.3,,49.9,-764,409,59,1021.3,52.1,288.2
"2022-04-17 20:49:15+00",20.9,23.9,,,-670,652,77,1021.4,52.3,291.8
"2022-04-17 20:54:15+00",17.5,20.5,,50.5,-585,524,72,1021.45,52.5,290.4
"2022-04-17 20:59:15+00",18.5,20.5,,50.4,-631,543,68,1021.53,52.6,257
"2022-04-17 21:04:15+00",16.6,20.6,,,-589,438,47,1021.56,52.2,250.4
"2022-04-17 21:09:15+00",21.9,25.9,,,-770,637,69,1021.57,52.2,232
"2022-04-17 21:14:15+00",19.7,21.7,,,-576,679,45,1021.71,51.9,221.6
"2022-04-17 21:19:15+00",14.7,16.7,,,-493,424,39,1021.88,50.9,58.9
"2022-04-17 21:24:15+00",13.3,15.3,,49.4,-283,521,39,1021.99,50.3,50.9
"2022-04-17 21:29:15+00",14.2,16.2,,,-338,534,26,1022.07,50.1,131.4
"2022-04-17 21:34:15+00",16.2,18.2,,,-335,636,31,1022.02,50.9,218.2
"2022-04-17 21:39:15+00",13.9,17.9,,,-277,573,45,1021.91,51.8,201.2
"2022-04-17 21:44:15+00",18.8,21.8,,50.2,-521,660,60,1021.93,51.9,163.9
"2022-04-17 21:49:15+00",19.1,21.1,,,-386,762,44,1022.01,51.8,156.5
"2022-04-17 21:54:15+00",19.2,21.2,,49.7,-432,736,22,1022.21,51.6,145.9
"2022-04-17 21:59:15+00",17.3,19.3,,49.6,-354,679,29,1022.17,51.1,89.6
"2022-04-17 22:04:15+00",17.6,19.6,,49.7,-295,742,28,1022.19,51.3,127.9
"2022-04-17 22:09:15+00",14.4,17.4,,,-366,534,57,1022.24,51.3,117.6
"2022-04-17 22:14:15+00",18.2,20.2,,49.8,-380,719,38,1022.25,51.3,101.6
"2022-04-17 22:19:15+00",15.8,20.8,,,-405,589,49,1022.24,51,90.6
"2022-04-17 22:24:15+00",14.8,16.8,,49.9,-387,517,58,1022.46,51,78.3
"2022-04-17 22:29:15+00",21.6,24.6,,,-581,785,42,1022.51,50.9,67.3
"2022-04-17 22:34:15+00",16.2,18.2,,49.6,-508,529,36,1022.61,50.6,55.8
"2022-04-17 22:39:15+00",17.4,20.4,,49.6,-561,566,58,1022.73,50.4,46.9
"2022-04-17 22:44:15+00",18.8,20.8,,49.3,-203,810,12,1022.72,50.3,36.3
"2022-04-17 22:49:15+00",17.4,19.4,,49.2,-289,732,31,1022.81,50.3,22.8
"2022-04-17 22:54:15+00",20.0,21.0,,49.1,-266,842,14,1022.89,49.9,12.4
"2022-04-17 22:59:15+00",17.6,18.6,,,-175,769,11,1022.88,49.5,0
"2022-04-17 23:04:15+00",16.8,18.8,,48.9,-200,712,21,1022.96,49.3,0
"2022-04-17 23:09:15+00",16.2,18.2,,48.7,-265,658,21,1023.27,48.9,0
"2022-04-17 23:14:15+00",15.4,16.4,,48.5,-233,634,18,1023.15,48.5,0
"2022-04-17 23:19:15+00",15.8,18.8,,,-296,644,35,1023.28,48.1,0
"2022-04-17 23:24:15+00",14.3,16.3,,,-229,608,9,1023.38,47.7,0
"2022-04-17 23:29:15+00",13.0,14.0,,,-212,536,15,1023.47,47.3,0
"2022-04-17 23:34:15+00",14.0,17.0,,48,-268,570,4,1023.77,47,0
"2022-04-17 23:39:15+00",14.6,16.6,,,-298,575,26,1023.75,46.8,0
"2022-04-17 23:44:15+00",13.4,14.4,,,-263,530,27,1023.89,46.5,0
"2022-04-17 23:49:15+00",12.0,13.0,,,-199,496,11,1023.74,46.3,0
"2022-04-17 23:54:15+00",10.4,11.4,,47.1,-189,421,19,1024.05,45.8,0
"2022-04-17 23:59:15+00",11.8,12.8,,47,-250,469,26,1024.13,45.6,0
